{"data":{"norad_id":64502,"epoch":"2026-05-25T01:27:14.052384Z","epoch_age_seconds":73746,"freshness":"FRESH","line1":"1 64502U 25134C   26145.06057931  .00000479  00000+0  91839-4 0  9994","line2":"2 64502  51.9000 267.8657 0000342 146.7406 213.3578 14.79938238 51203","mean_motion":14.79938238,"eccentricity":3.42e-5,"inclination_deg":51.9,"raan_deg":267.8657,"arg_perigee_deg":146.7406,"mean_anomaly_deg":213.3578,"bstar":9.1839e-5,"rev_number":5120,"period_min":97.301357788148,"perigee_km":629.27943231732,"apogee_km":629.75875599416,"semimajor_km":7007.6560941557,"source":"CELESTRAK","updated_at":"2026-05-25T13:38:04.552232Z"}}